Change the Weather History Date:

Friday, July 20, 2012

  Actual Average Record
Temperature  
Mean Temperature 75 °F 76 °F  
Max Temperature 86 °F 87 °F 96 °F (2011)
Min Temperature 63 °F 65 °F 53 °F (2000)
Degree Days  
Heating Degree Days 0 0  
Month to date heating degree days 0 0  
Since 1 June heating degree days 13 17  
Since 1 July heating degree days 0 0  
Cooling Degree Days 10 11  
Month to date cooling degree days 353 220  
Year to date cooling degree days 832 536  
Since 1 June cooling degree days 608 449  
Growing Degree Days 25 (Base 50)    
Moisture  
Dew Point 66 °F    
Average Humidity 68    
Maximum Humidity 84    
Minimum Humidity 51    
Precipitation  
Precipitation T in 0.13 in 0.12 in (2010)
Month to date precipitation 1.08 2.55  
Year to date precipitation 10.25 21.35  
Sea Level Pressure  
Sea Level Pressure 30.01 in    
Wind  
Wind Speed 10 mph (North)    
Max Wind Speed 18 mph    
Max Gust Speed 25 mph    
Visibility 10 miles    
Events Rain    
T = Trace of Precipitation, MM = Missing Value Source: NWS Daily Summary

Daily Weather History Graph

Daily Weather History Graph

Search for Another Location

Airport or City:

Trip Planner

Search our weather history database for the weather conditions in past years. The results will help you decide how hot, cold, wet, or windy it might be!

Date:

Astronomy

Jul. 20, 2012 Rise Set
Actual Time 5:44 AM CDT 8:19 PM CDT
Civil Twilight 5:12 AM CDT 8:50 PM CDT
Nautical Twilight 4:33 AM CDT 9:29 PM CDT
Astronomical Twilight 3:50 AM CDT 10:12 PM CDT
Moon 7:20 AM CDT (7/20) 8:59 PM CDT (7/20)
Length of Visible Light 15h 37m
Length of Day
14h 35m
Waxing Crescent, 3% of the Moon is Illuminated
Jul 20
Waxing Crescent
Jul 26
First Quarter
Aug 1
Full
Aug 9
Last Quarter
Aug 17
New

Hourly Weather History & Observations

Time (CDT) Temp. Heat Index Dew Point Humidity Pressure Visibility Wind Dir Wind Speed Gust Speed Precip Events Conditions
12:54 AM 75.0 °F - 70.0 °F 84% 29.92 in 10.0 mi North 10.4 mph - N/A   Clear
1:54 AM 72.0 °F - 66.9 °F 84% 29.94 in 10.0 mi North 11.5 mph - N/A   Clear
2:54 AM 72.0 °F - 66.9 °F 84% 29.95 in 10.0 mi North 9.2 mph - N/A   Mostly Cloudy
3:19 AM 71.6 °F - 66.2 °F 83% 29.96 in 10.0 mi North 6.9 mph - N/A   Scattered Clouds
3:54 AM 71.1 °F - 66.0 °F 84% 29.94 in 10.0 mi North 8.1 mph - N/A   Mostly Cloudy
4:54 AM 71.1 °F - 66.9 °F 87% 29.96 in 10.0 mi North 10.4 mph - N/A   Overcast
5:03 AM 71.6 °F - 66.2 °F 83% 29.98 in 10.0 mi North 9.2 mph - N/A   Overcast
5:54 AM 72.0 °F - 66.9 °F 84% 29.97 in 10.0 mi North 9.2 mph - N/A   Overcast
6:24 AM 71.6 °F - 66.2 °F 83% 30.00 in 10.0 mi North 10.4 mph - N/A   Overcast
6:47 AM 71.6 °F - 66.2 °F 83% 30.00 in 10.0 mi North 9.2 mph - N/A   Overcast
6:54 AM 72.0 °F - 66.9 °F 84% 29.99 in 10.0 mi North 10.4 mph - N/A   Overcast
7:45 AM 73.4 °F - 66.2 °F 78% 30.01 in 10.0 mi NNW 8.1 mph - N/A   Overcast
7:54 AM 73.0 °F - 66.9 °F 81% 29.99 in 10.0 mi NNW 11.5 mph - N/A   Overcast
8:54 AM 75.0 °F - 66.9 °F 76% 30.01 in 10.0 mi North 13.8 mph - N/A   Overcast
9:54 AM 78.1 °F - 66.9 °F 68% 30.00 in 10.0 mi North 12.7 mph - N/A   Overcast
10:54 AM 78.1 °F - 66.9 °F 68% 30.02 in 10.0 mi North 12.7 mph - N/A   Overcast
11:54 AM 78.1 °F - 68.0 °F 71% 30.04 in 10.0 mi North 11.5 mph - N/A   Overcast
12:10 PM 78.8 °F - 68.0 °F 69% 30.05 in 10.0 mi North 12.7 mph - N/A   Overcast
12:54 PM 78.8 °F - 68.0 °F 69% 30.05 in 10.0 mi North 10.4 mph - N/A Rain Light Rain
1:06 PM 80.6 °F 83.2 °F 68.0 °F 65% 30.05 in 10.0 mi North 10.4 mph - 0.00 in   Overcast
1:37 PM 78.8 °F - 66.2 °F 65% 30.06 in 10.0 mi NNE 12.7 mph - 0.00 in Rain Light Rain
1:54 PM 80.1 °F 82.3 °F 66.9 °F 64% 30.04 in 10.0 mi North 12.7 mph - 0.00 in   Overcast
2:54 PM 82.0 °F 84.1 °F 66.0 °F 58% 30.04 in 10.0 mi NE 15.0 mph - N/A   Overcast
3:54 PM 84.0 °F 85.8 °F 64.9 °F 53% 30.03 in 10.0 mi ENE 12.7 mph - N/A   Mostly Cloudy
4:54 PM 82.0 °F 83.8 °F 64.9 °F 56% 30.02 in 10.0 mi ENE 5.8 mph - N/A   Mostly Cloudy
5:54 PM 84.0 °F 85.4 °F 64.0 °F 51% 30.01 in 10.0 mi NE 12.7 mph - N/A   Partly Cloudy
6:54 PM 82.9 °F 83.7 °F 62.1 °F 49% 30.02 in 10.0 mi NNE 10.4 mph - N/A   Partly Cloudy
7:54 PM 80.1 °F 80.9 °F 60.1 °F 50% 30.03 in 10.0 mi North 9.2 mph - N/A   Clear
8:54 PM 72.0 °F - 61.0 °F 68% 30.04 in 10.0 mi NNE 6.9 mph - N/A   Clear
9:54 PM 66.9 °F - 61.0 °F 81% 30.05 in 10.0 mi ENE 4.6 mph - N/A   Clear
10:54 PM 66.9 °F - 60.1 °F 79% 30.06 in 10.0 mi NE 3.5 mph - N/A   Clear
11:54 PM 64.9 °F - 59.0 °F 81% 30.06 in 10.0 mi NE 4.6 mph - N/A   Clear